Temperature
9 9 9 8 8 8 8 8 8 8 8 7 7 7 7 7 7 7 8 8 8 8 8 8 8 8 8 8 8 8 8 8 8 8 8 8 8 8 9 9 9 9 10
9 9 9 8 8 8 8 8 8 7 7 7 7 7 7 7 7 7 7 7 8 8 8 8 7 7 7 7 7 7 7 7 7 8 8 8 8 8 8 8 8 8 8
9 9 9 8 8 8 8 8 8 7 7 7 7 7 7 7 7 7 7 7 8 8 8 8 7 7 7 6 6 7 7 7 7 7 7 7 7 8 8 8 8 8 7
9 9 9 8 8 8 8 8 7 7 7 7 7 7 7 7 7 7 8 8 8 8 8 8 7 7 7 6 6 6 6 6 6 6 7 7 7 7 7 7 7 7 7
9 9 8 8 8 8 7 7 7 7 7 7 6 6 7 7 7 7 8 8 8 8 8 8 7 7 7 7 6 6 6 6 6 6 6 6 6 7 7 7 7 7 7
9 9 8 8 8 8 7 7 7 7 6 6 6 6 7 7 7 7 7 7 7 7 7 7 7 7 7 6 6 6 5 5 5 5 5 5 5 6 6 7 7 7 7
9 9 8 8 8 7 7 7 7 6 6 6 6 6 7 7 7 7 7 7 7 6 6 6 6 6 6 6 6 5 5 5 5 4 4 5 5 5 5 6 6 7 7
9 8 8 8 7 7 7 7 6 6 6 6 5 4 4 5 5 5 5 6 6 6 5 5 5 5 5 5 5 5 5 4 4 4 4 4 4 4 5 5 6 6 7
8 8 8 7 7 7 7 6 6 6 6 6 5 4 3 3 3 3 4 4 4 4 4 4 4 4 4 4 4 4 4 4 4 4 4 4 4 4 4 4 5 5 6
8 7 7 7 7 6 6 6 6 5 5 5 5 4 3 3 2 2 2 3 3 3 3 3 3 4 4 4 3 3 3 3 3 3 3 3 4 4 4 4 4 5 5
7 7 7 6 6 6 6 5 5 5 4 4 4 3 3 3 2 1 1 2 2 2 2 2 3 3 3 3 3 3 3 3 2 2 2 3 3 3 4 4 4 4 4
7 7 6 6 6 6 5 5 5 4 4 4 3 3 2 2 2 1 1 0 0 1 1 1 2 2 2 2 2 1 1 1 1 1 2 2 2 2 3 3 3 3 3
7 6 6 6 5 5 5 5 4 4 4 3 3 2 2 2 1 1 0 -0 -1 -0 -0 0 1 1 1 1 0 0 0 0 0 0 1 1 1 1 2 2 2 2 2
6 6 5 5 5 5 4 4 4 4 3 3 2 2 1 1 1 0 -0 -1 -2 -2 -1 -1 -1 -1 -1 -1 -1 -1 -1 -1 -1 -1 -0 -0 -0 0 1 1 1 2 2
5 5 5 5 4 4 4 4 3 3 3 2 2 1 1 1 0 -0 -1 -2 -2 -3 -3 -2 -2 -2 -2 -2 -2 -2 -2 -2 -2 -2 -1 -1 -1 -1 -0 0 0 1 1
5 5 4 4 4 4 3 3 3 2 2 2 1 1 0 -0 -1 -1 -2 -2 -3 -3 -4 -4 -3 -3 -3 -3 -3 -3 -3 -2 -2 -2 -2 -2 -2 -2 -1 -1 -1 -0 -0
4 4 4 3 3 3 3 2 2 1 1 1 0 -0 -1 -1 -2 -2 -2 -3 -3 -4 -5 -4 -4 -4 -4 -4 -3 -3 -3 -3 -2 -2 -2 -2 -2 -2 -2 -2 -1 -1 -1
4 3 3 3 3 2 2 1 1 1 0 -0 -1 -1 -2 -2 -3 -3 -3 -4 -4 -4 -5 -5 -5 -5 -4 -4 -4 -4 -3 -3 -3 -3 -3 -3 -3 -2 -2 -2 -2 -1 -1
3 3 3 2 2 2 1 1 0 -0 -1 -1 -2 -2 -3 -3 -3 -4 -4 -4 -4 -5 -5 -5 -5 -5 -5 -4 -4 -4 -4 -4 -3 -3 -3 -3 -3 -3 -3 -2 -2 -2 -2
2 2 2 2 1 1 0 -0 -1 -1 -2 -2 -3 -3 -4 -4 -4 -4 -5 -5 -5 -5 -5 -5 -5 -5 -5 -5 -4 -4 -4 -4 -4 -4 -3 -3 -3 -3 -3 -3 -3 -3 -2
2 2 1 1 1 0 -0 -1 -2 -2 -3 -3 -3 -4 -4 -4 -5 -5 -5 -5 -5 -5 -5 -5 -5 -5 -5 -5 -5 -5 -5 -4 -4 -4 -4 -4 -3 -3 -3 -3 -3 -3 -3
1 1 1 0 0 -0 -1 -2 -3 -3 -3 -4 -4 -4 -4 -5 -5 -5 -5 -5 -5 -5 -5 -5 -5 -5 -5 -5 -5 -5 -5 -5 -5 -4 -4 -4 -4 -4 -3 -3 -3 -3 -3
1 1 0 -0 -0 -1 -1 -2 -3 -4 -4 -4 -5 -5 -5 -5 -5 -5 -5 -5 -5 -5 -6 -5 -5 -5 -5 -5 -5 -5 -5 -5 -5 -5 -5 -5 -4 -4 -4 -3 -3 -3 -3
0 0 -0 -1 -1 -1 -2 -3 -3 -4 -4 -5 -5 -5 -5 -5 -5 -6 -6 -6 -6 -6 -5 -6 -6 -5 -5 -5 -5 -5 -5 -5 -5 -5 -5 -5 -4 -4 -4 -4 -3 -3 -3
-0 -1 -1 -1 -2 -2 -2 -3 -4 -5 -5 -5 -5 -5 -6 -6 -6 -6 -6 -6 -6 -6 -6 -6 -6 -6 -5 -5 -5 -5 -5 -5 -5 -5 -5 -5 -5 -4 -4 -4 -3 -3 -3
-1 -1 -1 -2 -2 -2 -3 -4 -5 -5 -6 -6 -6 -6 -6 -6 -6 -6 -6 -6 -6 -6 -6 -6 -6 -6 -6 -6 -6 -6 -6 -6 -6 -6 -5 -5 -5 -5 -5 -4 -4 -3 -3
Wind_Speed
7 8 8 9 10 10 10 9 10 10 11 11 12 12 12 14 16 16 17 18 19 21 22 22 22 22 22 22 22 22 22 22 22 22 22 22 21 21 20 20 19 19 18
9 8 7 8 9 10 11 10 10 9 8 9 8 10 12 13 14 16 17 19 20 22 24 24 24 24 24 24 24 24 24 24 24 24 24 24 24 24 23 23 22 22 21
10 8 6 6 8 10 9 8 8 7 5 5 6 8 9 11 12 15 17 18 19 21 24 25 25 26 26 25 25 25 25 25 25 26 26 26 26 26 26 26 25 25 24
8 6 4 5 7 6 5 3 3 3 4 4 5 5 6 9 12 14 16 17 18 18 21 24 26 26 26 26 26 26 25 25 26 26 27 28 28 28 28 28 28 28 27
3 3 3 4 4 3 2 2 2 3 4 5 6 6 5 6 8 12 13 16 18 18 19 21 24 25 26 26 26 26 26 26 26 26 27 28 29 29 30 30 30 30 30
0 1 1 2 2 1 2 2 3 3 4 5 6 7 6 7 7 7 10 13 15 17 18 18 19 20 23 24 25 26 26 26 26 26 27 27 28 29 30 31 32 32 32
2 1 1 2 1 1 3 3 3 4 3 2 3 5 6 7 7 7 6 7 9 13 14 15 15 16 17 21 23 25 26 26 26 26 26 27 27 28 29 30 31 33 33
2 1 1 1 1 1 3 3 2 2 3 1 2 4 5 5 4 4 5 6 7 8 8 11 12 14 16 17 20 25 26 27 28 28 27 27 27 27 28 29 30 31 33
3 2 2 1 1 1 2 3 3 3 4 3 2 3 4 5 5 5 5 6 6 5 5 10 12 15 18 18 19 22 25 26 28 28 28 28 28 28 28 28 29 30 31
4 3 2 2 2 1 3 4 3 3 3 4 3 4 6 5 5 6 4 5 7 7 8 8 10 15 18 18 19 23 26 27 28 29 29 29 29 29 29 28 28 29 30
5 4 3 3 2 2 3 4 4 4 3 4 4 4 5 5 7 7 10 7 5 6 7 8 8 12 17 19 19 22 27 28 28 29 29 29 30 30 30 29 28 28 28
3 5 4 4 4 4 4 5 5 6 5 6 6 5 5 5 6 7 10 11 10 7 8 7 8 9 16 18 20 24 26 27 28 28 29 29 29 30 30 30 29 28 28
3 4 4 4 4 5 6 6 5 6 6 6 7 6 6 7 7 7 10 13 12 8 6 6 8 9 14 16 17 23 25 26 27 28 28 29 29 29 29 29 29 29 28
3 4 5 5 6 7 7 6 5 6 6 6 8 8 6 7 6 6 7 10 15 10 6 7 5 7 11 14 18 24 21 26 28 28 29 29 29 29 29 29 29 28 28
3 4 5 5 6 7 7 5 5 7 7 7 7 8 6 6 6 6 6 6 9 16 14 6 5 6 9 13 19 19 17 24 28 29 29 29 29 29 29 29 28 28 27
3 4 5 6 6 6 6 6 7 7 7 8 7 8 8 7 6 6 6 6 7 11 16 6 6 7 9 13 22 20 18 27 29 29 30 30 30 30 30 29 29 28 28
4 5 6 7 7 8 7 7 8 9 9 9 9 9 10 9 7 7 6 7 8 9 16 14 7 7 9 12 13 15 18 17 19 27 28 29 29 29 29 29 29 29 29
5 6 6 7 8 8 8 8 9 9 9 10 10 10 11 10 9 8 7 9 9 9 13 19 12 8 10 10 12 13 13 15 13 23 27 28 28 28 28 28 27 27 27
6 6 7 8 9 9 9 9 9 10 10 10 11 11 11 10 11 9 10 10 10 11 11 14 15 10 9 9 10 12 13 11 13 19 23 24 25 26 26 26 26 26 26
7 8 8 8 9 9 9 10 10 10 10 10 11 11 11 11 12 12 11 11 11 11 11 13 14 12 9 8 8 9 10 8 10 11 16 19 22 25 25 25 25 25 24
8 8 8 9 9 8 9 10 9 10 10 10 10 10 11 15 18 16 14 11 10 10 11 12 13 12 10 8 8 8 11 9 9 9 10 10 10 9 12 19 22 23 24
8 8 9 9 10 10 17 22 18 10 9 10 10 10 11 15 18 23 25 24 21 15 13 13 14 14 13 11 10 10 11 12 10 5 7 9 7 9 8 7 18 23 23
8 9 9 9 10 13 21 23 23 15 10 9 10 10 12 13 18 11 19 23 22 25 24 18 16 16 15 12 12 14 13 14 14 7 7 11 8 10 9 12 22 23 23
8 8 9 10 10 13 21 24 24 14 10 10 10 11 12 12 13 15 13 13 13 14 17 14 13 15 15 14 14 15 15 14 13 10 9 11 9 9 10 8 19 23 23
8 9 9 10 11 13 21 24 23 10 9 11 11 11 13 12 20 25 17 14 14 12 18 23 24 23 25 25 20 11 10 11 12 7 6 6 7 8 8 8 13 20 21
9 9 10 10 11 11 19 23 23 9 10 10 10 10 18 19 23 25 16 13 15 13 12 13 15 16 14 15 19 12 9 10 10 7 5 5 6 5 5 5 6 6 8
Wind_Direction
205 210 215 217 225 232 236 241 246 250 253 257 259 256 255 255 256 258 261 267 273 279 282 283 283 282 281 279 277 275 272 271 269 266 265 263 261 260 259 258 257 255 254
209 209 218 222 229 234 237 237 239 241 247 252 257 257 256 258 260 261 263 267 273 278 281 283 283 283 282 281 280 279 277 274 271 269 266 264 261 259 257 256 256 255 254
211 211 216 225 236 242 244 246 250 250 255 257 261 266 267 267 268 269 270 269 270 275 278 281 283 284 283 283 282 281 281 280 277 273 270 267 264 261 258 256 254 253 252
215 214 220 235 247 252 251 251 253 261 265 268 272 273 273 274 273 272 273 271 270 271 274 279 281 283 284 285 284 284 283 282 282 280 276 272 268 265 262 259 255 253 251
207 207 226 248 260 260 264 266 267 259 274 278 277 274 268 265 268 272 271 272 271 270 270 276 281 282 284 285 285 285 285 284 283 282 281 279 275 270 265 262 259 255 252
170 211 249 271 279 277 289 290 284 278 268 275 288 285 275 267 264 263 269 275 276 275 275 275 278 281 285 286 286 286 286 286 285 284 282 281 279 277 272 267 263 259 255
343 310 286 298 303 284 281 286 286 291 289 291 305 300 284 271 269 265 267 273 279 282 283 281 280 279 282 287 289 288 288 288 287 286 284 282 281 279 278 274 269 264 260
342 322 276 288 304 299 307 304 294 293 288 284 277 311 316 318 315 277 271 268 268 281 286 289 290 286 283 281 284 288 289 289 288 286 285 283 281 280 279 278 275 271 266
341 332 307 283 290 264 285 288 277 262 281 289 212 237 290 289 305 275 266 265 275 282 281 288 288 288 286 282 281 287 290 290 289 287 285 283 281 279 278 277 277 275 273
353 341 325 307 297 286 283 282 271 252 252 278 275 231 233 254 281 299 282 278 275 271 270 276 279 281 282 280 281 286 291 291 289 287 285 283 281 279 277 276 276 276 276
356 349 337 329 315 297 283 285 287 272 249 255 260 260 259 256 240 265 288 284 278 260 260 263 267 273 275 275 275 281 289 290 289 288 287 286 284 281 279 277 277 278 279
342 346 340 330 314 301 290 286 281 279 269 264 262 255 254 259 263 260 278 288 286 275 259 256 259 263 268 270 273 282 287 289 289 288 288 287 286 285 282 278 277 277 278
324 320 328 320 310 302 298 294 289 285 277 272 267 264 259 257 260 267 281 291 290 283 259 251 251 258 268 268 270 281 286 287 288 288 288 288 287 286 284 281 277 275 275
284 296 313 312 309 308 306 300 291 284 282 276 276 273 270 267 263 262 271 292 300 294 269 258 255 253 267 270 273 282 281 283 285 286 286 286 286 285 284 282 279 276 274
287 308 314 311 310 308 303 299 290 288 288 279 276 274 271 267 264 263 263 266 284 298 296 268 264 259 268 274 279 281 273 279 284 285 284 284 284 283 282 281 280 278 275
303 311 312 308 304 302 300 298 293 287 287 282 276 275 272 271 266 264 261 261 259 279 290 282 271 267 273 283 286 286 282 285 286 285 285 283 282 281 280 279 278 277 275
297 300 300 302 302 300 298 295 290 289 285 284 283 281 276 273 270 266 261 262 264 268 285 292 274 268 266 270 278 279 280 279 279 282 283 283 282 281 279 277 276 275 274
286 288 292 295 295 295 293 290 290 291 286 285 284 282 280 280 272 268 266 267 270 268 277 289 291 278 266 267 270 272 279 279 274 280 283 283 282 281 280 278 276 275 274
286 289 290 290 290 289 288 284 281 282 280 278 278 277 278 277 277 274 270 273 274 276 272 280 288 284 276 272 272 273 272 272 274 278 281 282 282 282 282 281 280 278 277
284 286 285 283 283 284 284 283 280 277 275 274 273 271 271 270 272 274 277 272 273 274 274 278 284 286 280 270 267 274 279 268 269 274 276 278 279 281 281 282 283 282 281
279 279 282 283 283 286 284 284 282 276 273 275 273 268 269 277 282 285 286 280 277 279 282 285 287 289 285 281 276 274 279 277 268 261 264 266 269 268 272 276 279 280 279
278 279 279 280 283 290 301 307 306 292 281 279 282 279 278 284 287 291 293 294 292 289 289 287 288 286 287 282 280 279 281 282 282 239 246 262 252 259 259 253 268 273 274
276 279 278 277 278 285 301 306 307 305 289 282 281 283 289 289 295 286 288 290 289 288 287 286 286 285 285 281 279 278 274 274 275 263 259 272 260 262 260 263 271 272 272
274 276 278 278 279 287 301 307 308 303 286 279 276 277 280 281 281 286 279 277 274 275 278 279 272 273 273 273 268 270 274 276 272 264 251 268 266 263 264 254 265 268 270
277 276 276 278 279 287 299 306 306 292 284 280 277 276 281 280 285 292 293 287 285 281 285 285 284 285 285 289 289 286 280 282 283 272 231 246 262 265 263 260 260 265 266
277 281 281 277 276 279 294 303 304 292 287 285 280 274 284 288 292 295 292 288 290 288 283 286 288 289 288 287 290 283 278 281 282 279 239 236 256 258 268 256 253 258 264
Height
1555 1555 1555 1555 1555 1554 1554 1553 1552 1551 1550 1550 1549 1547 1546 1545 1544 1543 1542 1542 1541 1540 1539 1538 1537 1536 1536 1535 1534 1534 1533 1532 1532 1531 1531 1530 1530 1529 1529 1528 1528 1527 1527
1554 1554 1553 1553 1553 1552 1551 1550 1549 1548 1548 1547 1545 1544 1543 1542 1540 1539 1538 1537 1536 1535 1534 1533 1532 1531 1530 1530 1529 1529 1528 1527 1527 1527 1526 1526 1525 1525 1524 1524 1524 1523 1523
1552 1551 1551 1551 1550 1550 1549 1548 1547 1545 1544 1543 1542 1541 1539 1538 1536 1534 1533 1532 1531 1530 1528 1527 1526 1525 1524 1524 1523 1523 1522 1521 1521 1521 1520 1520 1520 1519 1519 1519 1519 1518 1518
1549 1549 1548 1548 1547 1546 1545 1544 1543 1542 1540 1539 1537 1536 1534 1532 1531 1529 1528 1526 1525 1524 1522 1521 1520 1519 1518 1517 1517 1516 1515 1515 1514 1513 1513 1513 1513 1513 1513 1513 1513 1513 1513
1547 1546 1545 1545 1544 1543 1542 1540 1539 1538 1536 1534 1532 1530 1528 1527 1525 1524 1522 1521 1519 1518 1517 1516 1514 1513 1512 1511 1510 1509 1509 1508 1507 1506 1505 1505 1505 1505 1505 1505 1506 1506 1506
1543 1543 1542 1541 1540 1539 1538 1536 1535 1533 1531 1529 1526 1524 1522 1520 1519 1518 1517 1516 1515 1513 1512 1511 1509 1508 1507 1506 1504 1503 1502 1501 1500 1499 1498 1497 1496 1496 1497 1497 1498 1498 1499
1540 1540 1539 1538 1537 1535 1534 1532 1531 1529 1527 1525 1522 1518 1515 1514 1512 1512 1511 1510 1509 1508 1507 1505 1504 1502 1501 1500 1498 1497 1495 1494 1493 1492 1490 1489 1488 1488 1488 1488 1488 1489 1490
1537 1537 1536 1534 1533 1532 1530 1529 1527 1525 1523 1522 1519 1514 1509 1506 1505 1505 1505 1504 1503 1502 1501 1500 1498 1497 1495 1493 1491 1489 1487 1486 1485 1484 1483 1482 1481 1480 1479 1479 1479 1479 1480
1535 1534 1533 1532 1530 1529 1527 1526 1524 1522 1519 1518 1517 1515 1510 1504 1500 1496 1496 1496 1496 1495 1495 1493 1491 1490 1488 1485 1483 1481 1479 1478 1476 1476 1475 1474 1473 1472 1471 1470 1470 1470 1470
1532 1531 1530 1529 1527 1526 1524 1522 1520 1518 1516 1513 1512 1511 1509 1505 1500 1491 1489 1490 1489 1487 1486 1485 1483 1481 1480 1477 1475 1473 1471 1469 1468 1467 1466 1466 1465 1464 1463 1462 1462 1461 1461
1530 1529 1527 1526 1524 1522 1520 1518 1516 1514 1512 1509 1507 1505 1502 1500 1497 1491 1482 1479 1479 1478 1478 1476 1474 1473 1471 1469 1466 1464 1462 1460 1459 1458 1457 1456 1456 1455 1454 1454 1453 1452 1452
1527 1526 1524 1523 1521 1519 1516 1514 1512 1509 1507 1504 1502 1499 1497 1494 1490 1486 1479 1473 1469 1468 1468 1467 1465 1464 1462 1460 1457 1455 1453 1451 1450 1448 1447 1446 1446 1445 1444 1444 1443 1443 1442
1524 1522 1521 1519 1517 1514 1512 1509 1506 1504 1501 1498 1495 1493 1490 1487 1484 1480 1474 1466 1461 1458 1457 1456 1456 1455 1453 1451 1448 1447 1444 1442 1441 1439 1438 1436 1435 1435 1434 1434 1434 1433 1433
1520 1519 1517 1514 1512 1509 1506 1503 1500 1498 1495 1491 1488 1486 1483 1480 1477 1474 1469 1462 1453 1447 1447 1446 1446 1445 1444 1442 1439 1437 1434 1433 1431 1429 1428 1426 1425 1424 1424 1424 1424 1423 1423
1517 1514 1512 1509 1507 1504 1501 1497 1494 1491 1488 1484 1481 1478 1475 1472 1469 1466 1462 1459 1453 1441 1434 1436 1436 1435 1434 1431 1429 1426 1424 1422 1420 1419 1417 1416 1415 1414 1413 1413 1413 1413 1413
1512 1510 1507 1504 1501 1498 1494 1491 1487 1484 1480 1477 1474 1470 1466 1463 1460 1457 1454 1451 1447 1440 1428 1424 1426 1425 1423 1421 1419 1416 1414 1412 1410 1408 1406 1405 1404 1403 1403 1403 1403 1403 1403
1508 1505 1502 1499 1495 1492 1488 1484 1480 1476 1472 1469 1466 1462 1458 1455 1451 1448 1445 1441 1438 1433 1423 1414 1416 1415 1413 1411 1408 1406 1404 1401 1399 1397 1396 1395 1394 1393 1393 1392 1392 1393 1393
1503 1500 1496 1493 1489 1485 1481 1477 1473 1469 1465 1461 1457 1454 1450 1447 1443 1440 1436 1432 1428 1425 1418 1409 1406 1405 1404 1402 1399 1397 1394 1392 1390 1388 1386 1385 1384 1383 1383 1383 1383 1383 1383
1498 1495 1491 1487 1483 1479 1474 1470 1466 1461 1457 1453 1450 1446 1442 1438 1434 1431 1427 1423 1419 1416 1411 1405 1399 1397 1395 1394 1391 1388 1386 1384 1382 1380 1378 1376 1375 1374 1373 1373 1373 1373 1373
1492 1488 1485 1481 1476 1472 1467 1463 1458 1453 1449 1446 1442 1438 1434 1430 1426 1422 1418 1415 1411 1408 1404 1399 1393 1390 1388 1386 1384 1380 1377 1375 1373 1372 1370 1368 1367 1365 1364 1364 1363 1363 1363
1486 1482 1478 1474 1470 1465 1460 1455 1450 1446 1441 1437 1433 1430 1426 1422 1418 1415 1412 1408 1405 1401 1397 1392 1387 1383 1380 1379 1377 1374 1370 1367 1364 1363 1360 1359 1358 1356 1355 1355 1354 1353 1353
1480 1476 1471 1467 1462 1458 1453 1448 1444 1439 1434 1429 1425 1421 1417 1414 1410 1407 1404 1401 1398 1394 1389 1385 1380 1377 1373 1371 1369 1366 1363 1359 1355 1355 1353 1350 1350 1347 1346 1346 1345 1345 1344
1473 1468 1464 1460 1455 1451 1446 1441 1436 1431 1426 1421 1417 1413 1409 1405 1402 1398 1394 1391 1388 1386 1383 1379 1373 1369 1366 1364 1361 1357 1355 1352 1348 1347 1346 1341 1341 1338 1338 1337 1337 1336 1336
1465 1461 1456 1452 1447 1443 1438 1433 1428 1423 1417 1413 1409 1405 1400 1396 1393 1389 1385 1381 1378 1376 1373 1370 1365 1361 1358 1355 1353 1349 1346 1342 1339 1338 1338 1334 1332 1331 1330 1329 1329 1328 1328
1457 1453 1449 1444 1439 1434 1430 1425 1420 1414 1408 1404 1401 1397 1393 1388 1385 1382 1379 1374 1369 1366 1364 1361 1357 1353 1350 1348 1345 1342 1338 1335 1331 1329 1329 1327 1324 1323 1322 1320 1320 1321 1321
1449 1445 1440 1436 1431 1425 1421 1416 1412 1406 1400 1395 1391 1388 1385 1382 1378 1375 1371 1366 1361 1357 1354 1350 1347 1344 1341 1338 1336 1334 1331 1328 1324 1322 1321 1320 1318 1317 1315 1313 1313 1314 1314